星链-37642(STARLINK-37642)

导读

STARLINK-37642(NORAD编号69455)是SpaceX星链星座的V2 Mini版本卫星,属于2024年后部署的第二代低轨通信卫星,编号符合2.0Mini版本“STARLINK-3XXXX”的命名规则。该卫星运行于近地轨道,核心用途是为全球提供高速宽带互联网接入服务,可支持普通终端连接及手机直连通信能力。作为星链规模化组网的组成部分,其在轨运行进一步扩充了星链星座的覆盖范围与服务容量,截至2026年6月该卫星仍处于正常在轨工作状态。

基本信息
目录编号:
69455
目录名称:
STARLINK-37642
国际标识:
2026-127N
轨道中心:
EARTH
卫星名称:
星链-37642
卫星全名:
星链-37642(STARLINK-37642)
卫星状态:
在轨 (已飞行89 天)
发射日期:
2026-06-08 UTC
国别 :
美国 (US)
星等 :
--
轨道信息
数据来源 国际轨道数据
星历时间: 2026-09-04T17:37:16+0800
21小时前
查看轨道信息
半长轴: 6840.804km
偏心率: 0.0001588
轨道倾角: 53.157°
近地点辐角 73.874°
升交点赤经 240.748°
平近点角 286.244°
近地点: 461.58km
远地点: 463.754km
周期: 93.847分钟
每日圈数: 15.344123
详细信息
固有亮度:
5
最大亮度:
2.5
卫星平台:
Starlink V1.0
覆盖范围:
全球
运营商:
太空探索技术公司
运营商所在国:
美国
制造商(研发单位):
太空探索技术公司
制造商所在国:
美国
使用方式:
暂无
卫星简介
Starlink 计划是 SpaceX 推出的全球卫星互联网项目,通过发射低轨道卫星,为全球尤其是偏远地区提供高速、低延迟的互联网服务。自 2019 年起,Starlink 已部署数千颗卫星,旨在缩小全球数字鸿沟,推动互联网普及。该项目还为军事、航空等行业提供通信支持,带来广泛经济效益。
2D轨道图
3D轨道图
轨道高度分析图
轨道倾角分析图
轨道综合分析图
查看轨道综合分析图
交会数据列表
事件ID 空间交会对象 最接近时刻(TCA) 交会距离 交会风险概率(CRP) 交会风险指数(CRI) 操作
CDM_260906-221706-100506-945522
2026-09-06T
22:17:46+0000
0.488 km
远距离
1.416916E-4 高风险 0.78
CDM_260906-125204-302406-945523
2026-09-06T
12:52:46+0000
1.472 km
极远距离
6.614598E-6 低风险 0.51
CDM_260906-134106-100506-945521
2026-09-06T
13:41:54+0000
1.441 km
极远距离
4.687529E-6 低风险 0.48
CDM_260906-120806-100506-945522
2026-09-06T
12:08:07+0000
1.968 km
极远距离
1.896156E-6 低风险 0.41